Regional Weather Roundup
Issued by NWS

Home | Current Version | Previous Version | Text Only | Print | Product List | Glossary On
Versions: 1 2 3 4 5 6 7 8 9 10 11 12 13 14 15 16 17 18 19 20 21 22 23 24 25 26 27 28 29 30 31 32 33 34 35 36 37 38 39 40 41 42 43 44 45 46 47 48 49 50
000
ASUS43 KLMK 251402
RWRKY
KENTUCKY REGIONAL WEATHER ROUNDUP
NATIONAL WEATHER SERVICE LOUISVILLE KY
1000 AM EDT MON MAY 25 2015

NOTE "FAIR" INDICATES FEW OR NO CLOUDS BELOW 12,000 FEET
WITH NO SIGNIFICANT WEATHER AND/OR OBSTRUCTIONS TO VISIBILITY.

KYZ001>023-026-027-061>063-070>075-251500-
WESTERN AND SOUTH CENTRAL KENTUCKY

CITY           SKY/WX    TMP DP  RH WIND       PRES   REMARKS
PADUCAH        CLOUDY    70  66  87 S8        30.08R
HENDERSON      CLOUDY    70  64  83 S14G20    30.08S
OWENSBORO      LGT RAIN  69  68  97 S16       30.12R
HOPKINSVILLE   DRIZZLE   69  67  95 S9        30.14R
BOWLING GREEN  LGT RAIN  68  63  84 S13       30.18R
GLASGOW        NOT AVBL
$$

KYZ024-025-028>034-038-045-046-053-251500-
NORTH CENTRAL KENTUCKY

CITY           SKY/WX    TMP DP  RH WIND       PRES   REMARKS
LOUISVILLE/SDF LGT RAIN  68  65  90 S12       30.15S FOG
LOUISVILLE/LOU LGT RAIN  67  65  93 S7        30.16S FOG
FORT KNOX      LGT RAIN  66  64  94 S9        30.15R
$$

KYZ035>037-039>044-047>052-055>060-089>105-251500-
NORTHEAST KENTUCKY

CITY           SKY/WX    TMP DP  RH WIND       PRES   REMARKS
LEXINGTON      PTSUNNY   76  58  53 S16       30.18S
COVINGTON      LGT RAIN  65  62  90 S15G23    30.16S FOG
FRANKFORT      CLOUDY    73  58  59 SW12      30.17R
$$

KYZ054-064>069-076>088-106>120-251500-
SOUTHEAST KENTUCKY

CITY           SKY/WX    TMP DP  RH WIND       PRES   REMARKS
JACKSON        SUNNY     71  56  58 VRB3      30.24R
LONDON         SUNNY     75  54  47 S13G21    30.23S
SOMERSET       NOT AVBL
MIDDLESBORO    MOSUNNY   71  57  61 S5        30.27S
MONTICELLO     PTSUNNY   75  61  62 S9G18     30.23S
$$



USA.gov is the U.S. government's official web portal to all federal, state and local government web resources and services.